Location: Tafessasset
(32.5899°N, 5.4824°W)
Time: 13:42:00
(UTC+00:00)

H-2A R/B - Pass Details

Date: 18 February 2020
Orbit: 530 x 652 km, 98.3° (Epoch: 29 March)

Event Time Altitude Azimuth Distance (km) Brightness Sun altitude
Rises 05:28:17 0° 2° (N) 2,920 6.0 -20.5°
Reaches altitude 10° 05:30:35 10° 354° (N) 2,025 5.1 -20.0°
Enters shadow 05:33:42 33° 315° (NW) 1,083 3.4 -19.4°
